This demonstration page uses our WeatherBlox Daily Observations layout. Learn more.

38.89511, -77.03637

Hourly Observations for March 5, 2015

Temp ( °F °C ) Dew Point ( °F °C ) Humidity (%) Winds ( mph kmh ) Pressure ( in mb ) Visibility ( mi km ) Precip ( " mm )
12:52 am 00:52 Cloudy with Light Rain 45 7 37 3 76 76 N 9 15 29.97 1015 7 11.265408 0.05 1.27
1:04 am 01:04 Cloudy with Light Rain 45 7 37 3 76 76 N 9 15 29.97 1015 5 8.04672 0 0
1:39 am 01:39 Cloudy with Light Rain 45 7 39 4 81 81 NNW 9 15 30 1016 4 6.437376 0.04 1.016
1:52 am 01:52 Cloudy with Light Rain 43 6 37 3 81 81 NNW 8 13 30 1016 4 6.437376 0.05 1.27
2:52 am 02:52 Cloudy with Light Rain 43 6 36 2 76 76 NNW 9 15 30 1016 7 11.265408 0.01 0.254
2:59 am 02:59 Cloudy with Light Rain 43 6 37 3 81 81 NNW 8 13 30 1016 7 11.265408 0.01 0.254
3:14 am 03:14 Cloudy with Light Rain 41 5 36 2 81 81 NNW 15 24 29.97 1015 7 11.265408 0 0
3:23 am 03:23 Cloudy with Light Rain 41 5 36 2 81 81 NNW 14 22 29.97 1015 7 11.265408 0.02 0.508
3:52 am 03:52 Cloudy with Light Rain 41 5 36 2 81 81 NW 8 13 30.03 1017 7 11.265408 0.05 1.27
4:52 am 04:52 Cloudy with Light Rain 39 4 36 2 87 87 NNW 9 15 30.03 1017 4 6.437376 0.03 0.762
5:28 am 05:28 Cloudy with Light Rain 39 4 34 1 81 81 N 10 17 30.03 1017 5 8.04672 0 0
5:42 am 05:42 Cloudy with Light Rain 39 4 34 1 81 81 N 13 20 30.03 1017 5 8.04672 0 0
5:52 am 05:52 Cloudy with Light Rain 39 4 34 1 81 81 N 12 19 30.06 1018 4 6.437376 0.02 0.508
6:27 am 06:27 Cloudy with Light Rain 39 4 32 0 75 75 N 12 19 30.06 1018 4 6.437376 0.01 0.254
6:33 am 06:33 Cloudy with Light Rain 37 3 34 1 87 87 N 13 20 30.06 1018 4 6.437376 0.01 0.254
6:46 am 06:46 Cloudy with Light Rain 37 3 32 0 81 81 N 14 22 30.06 1018 3 4.828032 0.01 0.254
6:52 am 06:52 Cloudy with Light Rain 37 3 32 0 81 81 N 14 22 30.06 1018 3 4.828032 0.02 0.508
7:19 am 07:19 Cloudy with Light Rain 37 3 32 0 81 81 N 15 24 30.06 1018 2.5 4.02336 0.01 0.254
7:37 am 07:37 Cloudy 37 3 30 -1 75 75 N 10 17 30.09 1019 3 4.828032 0.05 1.27
7:52 am 07:52 Cloudy 36 2 30 -1 81 81 N 15 24 30.09 1019 3 4.828032 0.06 1.524
7:57 am 07:57 Cloudy 36 2 30 -1 81 81 N 13 20 30.12 1020 2.5 4.02336 0.01 0.254
8:16 am 08:16 Cloudy 36 2 30 -1 81 81 N 15 24 30.12 1020 2 3.218688 0 0
8:20 am 08:20 Cloudy 36 2 30 -1 81 81 N 15 24 30.12 1020 1 1.609344 0 0
8:52 am 08:52 Cloudy with Light Snow 36 2 30 -1 81 81 NNE 14 22 30.12 1020 0.75 1.207008 0.07 1.778
9:36 am 09:36 Cloudy with Light Snow 34 1 28 -2 81 81 N 15 24 30.12 1020 1 1.609344 0 0
9:52 am 09:52 Cloudy with Light Snow 34 1 28 -2 81 81 N 13 20 30.15 1021 1 1.609344 0.07 1.778
10:08 am 10:08 Cloudy with Light Snow 34 1 28 -2 81 81 N 13 20 30.15 1021 0.75 1.207008 0 0
10:39 am 10:39 Windy with Snow Likely 34 1 28 -2 81 81 N 20 31 30.18 1022 1 1.609344 0.05 1.27
10:52 am 10:52 Cloudy with Light Snow 34 1 28 -2 81 81 NNW 16 26 30.18 1022 1 1.609344 0.06 1.524
10:59 am 10:59 Cloudy with Light Snow 34 1 28 -2 81 81 NNW 15 24 30.18 1022 0.75 1.207008 0.01 0.254
11:25 am 11:25 Mostly Cloudy with Scattered Snow Showers 34 1 28 -2 81 81 N 12 19 30.18 1022 0.75 1.207008 0.03 0.762
11:37 am 11:37 Cloudy with Snow 34 1 28 -2 81 81 N 12 19 30.18 1022 0.5 0.804672 0.05 1.27
11:52 am 11:52 Mostly Cloudy with Heavy Snow 32 0 27 -3 80 80 N 16 26 30.18 1022 0.25 0.402336 0.07 1.778
12:08 pm 12:08 Cloudy with Snow 32 0 27 -3 80 80 N 17 28 30.15 1021 0.5 0.804672 0 0
12:15 pm 12:15 Cloudy with Light Snow 32 0 27 -3 80 80 N 16 26 30.15 1021 1 1.609344 0.01 0.254
12:25 pm 12:25 Cloudy with Light Snow 32 0 27 -3 80 80 N 14 22 30.15 1021 2 3.218688 0.01 0.254
12:37 pm 12:37 Cloudy with Light Snow 32 0 27 -3 80 80 N 16 26 30.18 1022 2 3.218688 0.02 0.508
12:47 pm 12:47 Cloudy with Light Snow 34 1 27 -3 75 75 NNW 13 20 30.18 1022 1.5 2.414016 0.02 0.508
12:52 pm 12:52 Cloudy with Light Snow 32 0 27 -3 80 80 NNW 14 22 30.18 1022 1.25 2.01168 0.02 0.508
12:57 pm 12:57 Cloudy with Light Snow 32 0 27 -3 80 80 NNW 15 24 30.18 1022 1 1.609344 0.001 0.001
1:08 pm 13:08 Cloudy with Light Snow 32 0 27 -3 80 80 NNW 13 20 30.21 1023 0.75 1.207008 0 0
1:17 pm 13:17 Mostly Cloudy with Scattered Snow Showers 32 0 27 -3 80 80 NNW 12 19 30.21 1023 0.75 1.207008 0 0
1:52 pm 13:52 Mostly Cloudy with Snow 30 -1 27 -3 86 86 N 9 15 30.21 1023 0.5 0.804672 0 0
2:04 pm 14:04 Mostly Cloudy with Heavy Snow 30 -1 27 -3 86 86 NNW 14 22 30.18 1022 0.25 0.402336 0 0
2:18 pm 14:18 Mostly Cloudy with Snow 30 -1 27 -3 86 86 NNW 8 13 30.21 1023 0.25 0.402336 0 0
2:52 pm 14:52 Mostly Cloudy with Heavy Snow 30 -1 27 -3 86 86 NNW 13 20 30.21 1023 0.25 0.402336 0.12 3.048
3:19 pm 15:19 Mostly Cloudy with Snow 30 -1 27 -3 86 86 NNW 10 17 30.21 1023 0.25 0.402336 0 0
3:52 pm 15:52 Mostly Cloudy with Snow 30 -1 27 -3 86 86 NNW 10 17 30.21 1023 0.5 0.804672 0.09 2.286
4:21 pm 16:21 Mostly Cloudy with Heavy Snow 30 -1 25 -4 80 80 NNW 12 19 30.21 1023 0.25 0.402336 0.02 0.508
4:33 pm 16:33 Cloudy with Snow 28 -2 25 -4 86 86 NNW 16 26 30.27 1025 0.5 0.804672 0.03 0.762
4:45 pm 16:45 Cloudy with Light Snow 28 -2 25 -4 86 86 NNW 13 20 30.27 1025 0.75 1.207008 0.03 0.762
4:52 pm 16:52 Cloudy with Light Snow 28 -2 25 -4 86 86 NNW 13 20 30.24 1024 1 1.609344 0.03 0.762
5:09 pm 17:09 Cloudy with Light Snow 28 -2 23 -5 80 80 N 10 17 30.24 1024 3 4.828032 0.01 0.254
5:17 pm 17:17 Cloudy with Light Snow 28 -2 21 -6 74 74 NNW 16 26 30.24 1024 1.75 2.816352 0.01 0.254
5:26 pm 17:26 Cloudy with Light Snow 28 -2 23 -5 80 80 NNW 14 22 30.27 1025 2 3.218688 0 0
5:36 pm 17:36 Cloudy with Light Snow 28 -2 21 -6 74 74 NNW 16 26 30.27 1025 3 4.828032 0 0
5:39 pm 17:39 Cloudy with Light Snow 28 -2 21 -6 74 74 NNW 18 30 30.27 1025 3 4.828032 0.01 0.254
5:43 pm 17:43 Cloudy with Light Snow 28 -2 21 -6 74 74 NNW 18 30 30.3 1026 1.75 2.816352 0.01 0.254
5:52 pm 17:52 Cloudy with Light Snow 28 -2 21 -6 74 74 N 16 26 30.27 1025 2.5 4.02336 0.01 0.254
6:07 pm 18:07 Cloudy with Light Snow 28 -2 21 -6 74 74 NNW 13 20 30.3 1026 2.5 4.02336 0.001 0.001
6:26 pm 18:26 Cloudy with Light Snow 28 -2 21 -6 74 74 N 14 22 30.33 1027 4 6.437376 0 0
6:40 pm 18:40 Cloudy with Light Snow 28 -2 21 -6 74 74 N 15 24 30.33 1027 4 6.437376 0 0
6:52 pm 18:52 Cloudy with Light Snow 27 -3 19 -7 74 74 N 16 26 30.33 1027 3 4.828032 0.001 0.001
7:17 pm 19:17 Cloudy with Light Snow 27 -3 19 -7 74 74 N 15 24 30.36 1028 6 9.656064 0.001 0.001
7:52 pm 19:52 Cloudy with Light Snow 27 -3 18 -8 69 69 N 15 24 30.36 1028 9 14.484096 0.001 0.001
8:52 pm 20:52 Cloudy with Light Snow 27 -3 16 -9 64 64 NNW 15 24 30.39 1029 9 14.484096 0.001 0.001
9:06 pm 21:06 Cloudy with Light Snow 27 -3 16 -9 64 64 NNW 13 20 30.42 1030 9 14.484096 0.001 0.001
9:52 pm 21:52 Cloudy 27 -3 12 -11 54 54 NNW 15 24 30.45 1031 10 16.09344 0.001 0.001
10:52 pm 22:52 Mostly Cloudy 27 -3 12 -11 54 54 NNW 13 20 30.45 1031 10 16.09344 0 0
11:52 pm 23:52 Mostly Clear 23 -5 9 -13 54 54 NNW 14 22 30.45 1031 10 16.09344 0 0

Powered by AerisWeather